{"data":{"norad_id":60601,"intl_designator":"2024-150U","name":"STARLINK-31988","alt_names":[],"object_type":"PAYLOAD","status":"ACTIVE","operator":null,"country":"US","launch_date":"2024-08-20","launch_site_code":"AFETR","launch_vehicle":null,"mission":null,"orbit_class":"UNKNOWN","rcs_meters":null,"size_class":null,"mass_kg":null,"dimensions":null,"purposes":["comms"],"wikipedia_slug":null,"has_3d_model":false,"image_url":null,"decayed_at":null,"tle_current":{"epoch":"2026-05-25T04:37:30.387648Z","epoch_age_seconds":61605,"freshness":"FRESH","line1":"1 60601U 24150U   26145.19271282  .00000741  00000+0  33083-4 0  9997","line2":"2 60601  53.1623 311.0157 0001414  93.8514 266.2651 15.34390519 99683","mean_motion":15.34390519,"eccentricity":0.0001414,"inclination_deg":53.1623,"raan_deg":311.0157,"arg_perigee_deg":93.8514,"mean_anomaly_deg":266.2651,"bstar":3.3083e-5,"rev_number":9968,"period_min":93.848337966692,"perigee_km":461.76412108767,"apogee_km":463.69871867681,"semimajor_km":6840.8684198822,"source":"CELESTRAK","updated_at":"2026-05-25T13:38:19.282302Z"}}}